| time (UTC) | temp F | wind direction | speed MPH | gust MPH | rain 1hr in | rain 24hr in | rain mn in | humidity % | barometer mb |
| 20260504020413 | 37 | 306 | 0.0 | 1.0 | 0.00 | 0.00 | 0.00 | 83 | 1009.2 |
| 20260504020332 | 42 | 70 | 2.0 | 3.0 | 0.00 | 0.00 | 0.00 | 45 | 1010.8 |
| 20260504014933 | 37 | 306 | 0.0 | 0.0 | 0.00 | 0.00 | 0.00 | 82 | 1009.1 |
| 20260504014835 | 43 | 95 | 1.0 | 5.0 | 0.00 | 0.00 | 0.00 | 44 | 1010.6 |
| 20260504013401 | 43 | 87 | 3.0 | 4.0 | 0.00 | 0.00 | 0.00 | 39 | 1010.4 |
| 20260504013335 | 37 | 306 | 0.0 | 0.0 | 0.00 | 0.00 | 0.00 | 79 | 1008.9 |
| 20260504011915 | 44 | 105 | 2.0 | 3.0 | 0.00 | 0.00 | 0.00 | 38 | 1010.4 |
| 20260504011833 | 44 | 105 | 2.0 | 3.0 | 0.00 | 0.00 | 0.00 | 38 | 1010.4 |
| 20260504011818 | 38 | 306 | 0.0 | 0.0 | 0.00 | 0.00 | 0.00 | 77 | 1008.8 |
| 20260504010341 | 38 | 306 | 0.0 | 0.0 | 0.00 | 0.00 | 0.00 | 71 | 1008.6 |
| 20260504010335 | 44 | 99 | 2.0 | 3.0 | 0.00 | 0.00 | 0.00 | 39 | 1010.1 |
| 20260504004843 | 39 | 306 | 0.0 | 0.0 | 0.00 | 0.00 | 0.00 | 73 | 1008.4 |
| 20260504004841 | 44 | 87 | 3.0 | 4.0 | 0.00 | 0.00 | 0.00 | 39 | 1009.9 |
| 20260504003356 | 40 | 306 | 0.0 | 0.0 | 0.00 | 0.00 | 0.00 | 70 | 1008.2 |
| 20260504003345 | 45 | 81 | 3.0 | 4.0 | 0.00 | 0.00 | 0.00 | 40 | 1009.7 |
| 20260504001850 | 46 | 61 | 2.0 | 4.0 | 0.00 | 0.00 | 0.00 | 37 | 1009.6 |
| 20260504001818 | 41 | 306 | 0.0 | 1.0 | 0.00 | 0.00 | 0.00 | 67 | 1008.0 |
| 20260504000358 | 49 | 58 | 2.0 | 3.0 | 0.00 | 0.00 | 0.00 | 33 | 1009.4 |
| 20260504000346 | 43 | 306 | 0.0 | 2.0 | 0.00 | 0.00 | 0.00 | 64 | 1007.9 |
| 20260503234830 | 51 | 289 | 0.0 | 2.0 | 0.00 | 0.00 | 0.00 | 28 | 1009.3 |
| 20260503234828 | 45 | 306 | 1.0 | 2.0 | 0.00 | 0.00 | 0.00 | 60 | 1007.8 |
| 20260503233348 | 51 | 263 | 1.0 | 4.0 | 0.00 | 0.00 | 0.00 | 27 | 1009.2 |
| 20260503233339 | 48 | 306 | 0.0 | 2.0 | 0.00 | 0.00 | 0.00 | 59 | 1007.7 |
| 20260503231921 | 51 | 308 | 3.0 | 7.0 | 0.00 | 0.00 | 0.00 | 28 | 1009.1 |
| 20260503231842 | 50 | 351 | 0.0 | 2.0 | 0.00 | 0.00 | 0.00 | 50 | 1007.6 |
| 20260503230456 | 51 | 353 | 1.0 | 11.0 | 0.00 | 0.00 | 0.00 | 29 | 1009.1 |
| 20260503230413 | 51 | 353 | 1.0 | 11.0 | 0.00 | 0.00 | 0.00 | 29 | 1009.1 |
| 20260503230343 | 50 | 341 | 1.0 | 6.0 | 0.00 | 0.00 | 0.00 | 45 | 1007.5 |
| 20260503224842 | 50 | 335 | 2.0 | 8.0 | 0.00 | 0.00 | 0.00 | 44 | 1007.6 |
| 20260503224828 | 52 | 328 | 6.0 | 12.0 | 0.00 | 0.00 | 0.00 | 26 | 1009.2 |
| 20260503223412 | 50 | 22 | 3.0 | 5.0 | 0.00 | 0.00 | 0.00 | 45 | 1007.5 |
| 20260503223400 | 51 | 280 | 4.0 | 17.0 | 0.00 | 0.00 | 0.00 | 26 | 1009.1 |
| 20260503221845 | 52 | 291 | 9.0 | 14.0 | 0.00 | 0.00 | 0.00 | 25 | 1009.1 |
| 20260503221810 | 50 | 311 | 4.0 | 8.0 | 0.00 | 0.00 | 0.00 | 44 | 1007.5 |
| 20260503220416 | 51 | 349 | 3.0 | 9.0 | 0.00 | 0.00 | 0.00 | 43 | 1007.4 |
| 20260503220403 | 51 | 306 | 4.0 | 10.0 | 0.00 | 0.00 | 0.00 | 30 | 1009.0 |
| 20260503214858 | 51 | 295 | 7.0 | 16.0 | 0.00 | 0.00 | 0.00 | 27 | 1009.1 |
| 20260503214838 | 50 | 275 | 2.0 | 4.0 | 0.00 | 0.00 | 0.00 | 46 | 1007.6 |
| 20260503213421 | 51 | 212 | 4.0 | 13.0 | 0.00 | 0.00 | 0.00 | 28 | 1008.9 |
| 20260503213349 | 50 | 5 | 2.0 | 6.0 | 0.00 | 0.00 | 0.00 | 44 | 1007.4 |
| 20260503211907 | 51 | 300 | 6.0 | 19.0 | 0.00 | 0.00 | 0.00 | 31 | 1008.9 |
| 20260503211821 | 51 | 317 | 4.0 | 9.0 | 0.00 | 0.00 | 0.00 | 43 | 1007.3 |
| 20260503210350 | 50 | 268 | 7.0 | 16.0 | 0.00 | 0.00 | 0.00 | 28 | 1008.7 |
| 20260503210329 | 51 | 30 | 3.0 | 10.0 | 0.00 | 0.00 | 0.00 | 44 | 1007.1 |
| 20260503204851 | 51 | 215 | 8.0 | 16.0 | 0.00 | 0.00 | 0.00 | 27 | 1008.7 |
| 20260503204828 | 51 | 308 | 2.0 | 10.0 | 0.00 | 0.00 | 0.00 | 44 | 1007.0 |
| 20260503203427 | 51 | 357 | 5.0 | 15.0 | 0.00 | 0.00 | 0.00 | 31 | 1008.5 |
| 20260503203401 | 50 | 318 | 3.0 | 10.0 | 0.00 | 0.00 | 0.00 | 44 | 1007.1 |
| 20260503201950 | 49 | 325 | 8.0 | 19.0 | 0.00 | 0.00 | 0.00 | 30 | 1008.8 |
| 20260503201847 | 49 | 325 | 8.0 | 19.0 | 0.00 | 0.00 | 0.00 | 30 | 1008.8 |
| 20260503201837 | 49 | 327 | 3.0 | 11.0 | 0.00 | 0.00 | 0.00 | 45 | 1007.2 |
| 20260503200436 | 51 | 232 | 8.0 | 16.0 | 0.00 | 0.00 | 0.00 | 28 | 1008.8 |
| 20260503200340 | 50 | 344 | 4.0 | 14.0 | 0.00 | 0.00 | 0.00 | 46 | 1007.2 |
| 20260503194850 | 50 | 302 | 2.0 | 9.0 | 0.00 | 0.00 | 0.00 | 46 | 1007.3 |
| 20260503194832 | 49 | 345 | 8.0 | 16.0 | 0.00 | 0.00 | 0.00 | 31 | 1009.0 |
| 20260503193357 | 50 | 25 | 3.0 | 10.0 | 0.00 | 0.00 | 0.00 | 46 | 1007.2 |
| 20260503193345 | 49 | 318 | 7.0 | 18.0 | 0.00 | 0.00 | 0.00 | 30 | 1009.0 |
| 20260503191845 | 49 | 258 | 12.0 | 22.0 | 0.00 | 0.00 | 0.00 | 29 | 1008.8 |
| 20260503191841 | 49 | 286 | 3.0 | 13.0 | 0.00 | 0.00 | 0.00 | 46 | 1007.2 |
| 20260503190347 | 49 | 305 | 5.0 | 10.0 | 0.00 | 0.00 | 0.00 | 46 | 1007.3 |
| 20260503190331 | 49 | 248 | 5.0 | 16.0 | 0.00 | 0.00 | 0.00 | 32 | 1008.9 |
| 20260503184846 | 49 | 325 | 10.0 | 21.0 | 0.00 | 0.00 | 0.00 | 30 | 1008.9 |
| 20260503184835 | 49 | 315 | 5.0 | 12.0 | 0.00 | 0.00 | 0.00 | 45 | 1007.2 |
| 20260503183443 | 50 | 321 | 7.0 | 20.0 | 0.00 | 0.00 | 0.00 | 30 | 1008.9 |
| 20260503183401 | 50 | 321 | 7.0 | 20.0 | 0.00 | 0.00 | 0.00 | 30 | 1008.9 |
| 20260503183316 | 50 | 330 | 4.0 | 16.0 | 0.00 | 0.00 | 0.00 | 46 | 1007.3 |
| 20260503181908 | 50 | 353 | 9.0 | 22.0 | 0.00 | 0.00 | 0.00 | 29 | 1008.9 |
| 20260503181820 | 50 | 329 | 5.0 | 15.0 | 0.00 | 0.00 | 0.00 | 45 | 1007.4 |
| 20260503180343 | 50 | 344 | 8.0 | 21.0 | 0.00 | 0.00 | 0.00 | 29 | 1008.9 |
| 20260503180324 | 50 | 311 | 6.0 | 12.0 | 0.00 | 0.00 | 0.00 | 45 | 1007.4 |
| 20260503174826 | 48 | 291 | 10.0 | 20.0 | 0.00 | 0.00 | 0.00 | 32 | 1008.9 |
| 20260503174824 | 49 | 360 | 3.0 | 15.0 | 0.00 | 0.00 | 0.00 | 47 | 1007.3 |
| 20260503173358 | 49 | 271 | 4.0 | 11.0 | 0.00 | 0.00 | 0.00 | 48 | 1007.1 |
| 20260503173333 | 49 | 357 | 13.0 | 24.0 | 0.00 | 0.00 | 0.00 | 32 | 1008.8 |
| 20260503171917 | 49 | 330 | 10.0 | 21.0 | 0.00 | 0.00 | 0.00 | 31 | 1008.8 |
| 20260503171815 | 49 | 306 | 4.0 | 11.0 | 0.00 | 0.00 | 0.00 | 49 | 1007.1 |
| 20260503170434 | 49 | 295 | 10.0 | 17.0 | 0.00 | 0.00 | 0.00 | 34 | 1008.7 |
| 20260503170323 | 49 | 21 | 4.0 | 11.0 | 0.00 | 0.00 | 0.00 | 50 | 1007.0 |
| 20260503150400 | 49 | 327 | 4.0 | 14.0 | 0.00 | 0.02 | 0.00 | 48 | 1007.2 |
| 20260503130359 | 43 | 317 | 2.0 | 5.0 | 0.00 | 0.02 | 0.00 | 75 | 1007.9 |
| 20260503130333 | 44 | 94 | 4.0 | 12.0 | 0.00 | 0.03 | 0.00 | 52 | 1009.7 |
| 20260503110350 | 39 | 302 | 0.0 | 1.0 | 0.00 | 0.06 | 0.00 | 87 | 1008.0 |
| 20260503110332 | 40 | 295 | 1.0 | 4.0 | 0.00 | 0.05 | 0.00 | 62 | 1009.6 |
| 20260503090416 | 36 | 326 | 0.0 | 0.0 | 0.00 | 0.14 | 0.00 | 91 | 1008.1 |
| 20260503090358 | 39 | 345 | 1.0 | 3.0 | 0.00 | 0.06 | 0.00 | 61 | 1009.5 |
| 20260503080414 | 38 | 25 | 1.0 | 2.0 | 0.00 | 0.15 | 0.00 | 58 | 1010.2 |
| 20260503080322 | 36 | 326 | 1.0 | 1.0 | 0.00 | 0.22 | 0.00 | 89 | 1008.8 |
| 20260503071854 | 39 | 25 | 1.0 | 2.0 | 0.00 | 0.18 | 0.00 | 54 | 1010.4 |
| 20260503071828 | 37 | 326 | 1.0 | 2.0 | 0.00 | 0.27 | 0.00 | 88 | 1008.9 |
| 20260503070332 | 39 | 25 | 0.0 | 2.0 | 0.00 | 0.18 | 0.00 | 55 | 1010.6 |
| 20260503070330 | 37 | 326 | 0.0 | 1.0 | 0.00 | 0.27 | 0.00 | 85 | 1009.2 |
| 20260503060312 | 39 | 326 | 0.0 | 0.0 | 0.00 | 0.29 | 0.00 | 84 | 1009.6 |
| 20260503054901 | 39 | 326 | 0.0 | 1.0 | 0.00 | 0.29 | 0.00 | 83 | 1009.7 |
| 20260503054836 | 40 | 359 | 1.0 | 2.0 | 0.00 | 0.26 | 0.00 | 50 | 1011.2 |
| 20260503053341 | 41 | 345 | 1.0 | 2.0 | 0.00 | 0.26 | 0.00 | 48 | 1011.3 |
| 20260503051911 | 41 | 345 | 0.0 | 4.0 | 0.00 | 0.26 | 0.00 | 45 | 1011.6 |
| 20260503051838 | 39 | 326 | 0.0 | 1.0 | 0.00 | 0.30 | 0.00 | 85 | 1010.0 |
| 20260503050414 | 41 | 346 | 2.0 | 7.0 | 0.00 | 0.26 | 0.00 | 45 | 1011.7 |
| 20260503050318 | 38 | 318 | 0.0 | 1.0 | 0.00 | 0.30 | 0.00 | 88 | 1010.1 |
| 20260503044835 | 41 | 47 | 0.0 | 0.0 | 0.00 | 0.26 | 0.00 | 45 | 1012.0 |
| 20260503044817 | 38 | 318 | 0.0 | 2.0 | 0.00 | 0.30 | 0.00 | 87 | 1010.4 |
| 20260503043344 | 41 | 42 | 2.0 | 3.0 | 0.00 | 0.26 | 0.00 | 45 | 1012.1 |
| 20260503043340 | 38 | 318 | 1.0 | 2.0 | 0.00 | 0.30 | 0.00 | 86 | 1010.5 |
| 20260503041850 | 38 | 318 | 1.0 | 2.0 | 0.00 | 0.30 | 0.30 | 85 | 1010.7 |
| 20260503041846 | 41 | 43 | 1.0 | 3.0 | 0.00 | 0.26 | 0.00 | 47 | 1012.2 |
| 20260503040353 | 41 | 355 | 1.0 | 4.0 | 0.00 | 0.26 | 0.00 | 44 | 1012.4 |
| 20260503040314 | 38 | 318 | 0.0 | 2.0 | 0.00 | 0.30 | 0.30 | 84 | 1010.9 |
| 20260503034912 | 42 | 357 | 0.0 | 1.0 | 0.00 | 0.26 | 0.26 | 44 | 1012.5 |
| 20260503034814 | 39 | 318 | 1.0 | 1.0 | 0.00 | 0.30 | 0.30 | 82 | 1010.9 |
| 20260503033405 | 43 | 12 | 1.0 | 3.0 | 0.00 | 0.26 | 0.26 | 42 | 1012.4 |
| 20260503033336 | 39 | 318 | 0.0 | 1.0 | 0.00 | 0.30 | 0.30 | 82 | 1010.9 |
| 20260503031852 | 43 | 53 | 2.0 | 6.0 | 0.00 | 0.26 | 0.26 | 41 | 1012.5 |
| 20260503031816 | 40 | 318 | 1.0 | 2.0 | 0.00 | 0.30 | 0.30 | 78 | 1011.0 |
| 20260503030422 | 43 | 14 | 3.0 | 4.0 | 0.00 | 0.26 | 0.26 | 42 | 1012.5 |
| 20260503030316 | 41 | 319 | 1.0 | 2.0 | 0.00 | 0.30 | 0.30 | 76 | 1011.0 |
| 20260503024838 | 44 | 322 | 1.0 | 4.0 | 0.00 | 0.26 | 0.26 | 42 | 1012.6 |
| 20260503024817 | 43 | 319 | 0.0 | 2.0 | 0.00 | 0.30 | 0.30 | 73 | 1011.0 |
| 20260503023404 | 44 | 310 | 0.0 | 1.0 | 0.00 | 0.30 | 0.30 | 72 | 1011.0 |
| 20260503023350 | 44 | 322 | 1.0 | 3.0 | 0.00 | 0.26 | 0.26 | 42 | 1012.5 |
| 20260503021934 | 45 | 334 | 0.0 | 2.0 | 0.00 | 0.26 | 0.26 | 41 | 1012.6 |
| 20260503021830 | 44 | 323 | 2.0 | 3.0 | 0.00 | 0.30 | 0.30 | 64 | 1011.0 |